Precipitable_Water
1.71 1.60 1.53 1.41 1.39 1.33 1.29 1.26 1.24 1.26 1.24 1.29 1.33 1.31 1.30 1.36 1.34 1.38 1.47 1.47 1.55 1.56 1.59 1.55 1.54 1.50 1.41 1.38 1.44 1.47 1.45 1.45 1.54 1.49 1.47 1.47 1.55 1.61 1.63 1.51 1.41 1.45 1.43 1.54 1.60 1.61 1.52 1.47 1.46 1.45 1.47 1.39 1.37 1.35 1.34 1.38 1.38 1.31 1.31 1.34 1.28 1.26 1.17 1.11 0.99 0.97 1.16 1.37 1.35 1.27 1.40 1.48 1.38 1.47 1.37 1.43 1.48 1.51 1.45 1.41 1.44 1.51 1.56 1.55 1.53
1.73 1.68 1.64 1.49 1.42 1.43 1.34 1.29 1.23 1.24 1.20 1.21 1.28 1.33 1.31 1.30 1.33 1.28 1.33 1.36 1.41 1.45 1.46 1.48 1.51 1.51 1.46 1.38 1.38 1.44 1.46 1.46 1.45 1.44 1.39 1.39 1.40 1.51 1.58 1.55 1.46 1.41 1.44 1.41 1.53 1.62 1.63 1.51 1.49 1.53 1.50 1.43 1.47 1.43 1.36 1.33 1.34 1.24 1.21 1.25 1.23 1.24 1.30 1.17 1.12 1.03 0.98 1.27 1.25 1.35 1.30 1.38 1.27 1.52 1.49 1.44 1.39 1.39 1.31 1.38 1.35 1.54 1.60 1.62 1.49
1.87 1.80 1.75 1.70 1.55 1.50 1.46 1.36 1.25 1.19 1.15 1.15 1.18 1.29 1.34 1.31 1.35 1.28 1.25 1.30 1.30 1.34 1.39 1.38 1.42 1.44 1.41 1.44 1.37 1.36 1.43 1.43 1.44 1.44 1.45 1.40 1.35 1.41 1.46 1.47 1.49 1.47 1.39 1.41 1.42 1.47 1.51 1.51 1.52 1.51 1.55 1.47 1.44 1.44 1.45 1.36 1.38 1.36 1.29 1.25 1.21 1.23 1.31 1.32 1.20 1.07 1.02 1.06 1.24 1.16 1.21 1.40 1.40 1.43 1.44 1.42 1.37 1.36 1.31 1.39 1.46 1.44 1.54 1.59 1.55
1.80 1.75 1.78 1.67 1.68 1.72 1.62 1.48 1.37 1.24 1.14 1.13 1.12 1.20 1.30 1.32 1.33 1.28 1.24 1.29 1.26 1.25 1.31 1.36 1.37 1.35 1.33 1.34 1.37 1.32 1.38 1.40 1.40 1.41 1.44 1.46 1.43 1.38 1.45 1.48 1.45 1.43 1.38 1.39 1.40 1.42 1.42 1.43 1.47 1.53 1.53 1.52 1.52 1.48 1.45 1.40 1.36 1.37 1.38 1.38 1.30 1.27 1.30 1.38 1.35 1.24 1.21 1.07 1.13 1.14 1.17 1.13 1.26 1.37 1.34 1.34 1.35 1.34 1.36 1.36 1.38 1.36 1.47 1.56 1.59
1.86 1.77 1.71 1.67 1.77 1.77 1.67 1.58 1.52 1.37 1.24 1.15 1.13 1.14 1.21 1.29 1.32 1.26 1.23 1.22 1.28 1.26 1.24 1.30 1.32 1.32 1.30 1.29 1.28 1.26 1.30 1.33 1.33 1.34 1.36 1.39 1.43 1.43 1.42 1.43 1.43 1.41 1.40 1.42 1.43 1.43 1.40 1.39 1.45 1.48 1.50 1.47 1.49 1.47 1.45 1.37 1.32 1.33 1.32 1.32 1.31 1.33 1.34 1.32 1.32 1.33 1.24 1.13 1.13 1.22 1.29 1.25 1.24 1.25 1.30 1.20 1.30 1.37 1.40 1.35 1.37 1.32 1.33 1.50 1.59
1.91 1.87 1.85 1.77 1.72 1.81 1.89 1.74 1.59 1.50 1.39 1.31 1.23 1.22 1.20 1.22 1.29 1.30 1.27 1.20 1.23 1.28 1.25 1.23 1.27 1.25 1.26 1.28 1.26 1.25 1.25 1.28 1.29 1.29 1.31 1.32 1.32 1.34 1.34 1.32 1.31 1.32 1.33 1.34 1.36 1.36 1.35 1.38 1.40 1.44 1.45 1.39 1.38 1.43 1.47 1.42 1.39 1.30 1.27 1.32 1.31 1.29 1.25 1.25 1.26 1.24 1.22 1.22 1.21 1.18 1.28 1.21 1.18 1.18 1.29 1.35 1.27 1.23 1.24 1.30 1.22 1.19 1.29 1.44 1.56
1.87 1.85 1.91 1.91 1.79 1.72 1.89 1.98 1.84 1.61 1.50 1.45 1.42 1.32 1.28 1.24 1.23 1.27 1.29 1.25 1.20 1.21 1.28 1.24 1.25 1.25 1.22 1.23 1.23 1.23 1.23 1.24 1.25 1.25 1.26 1.31 1.31 1.27 1.24 1.21 1.16 1.16 1.17 1.19 1.22 1.22 1.22 1.24 1.28 1.34 1.34 1.36 1.36 1.36 1.41 1.42 1.41 1.37 1.36 1.32 1.34 1.34 1.34 1.33 1.33 1.30 1.28 1.22 1.22 1.21 1.16 1.24 1.21 1.14 1.29 1.38 1.34 1.28 1.22 1.16 1.15 1.31 1.34 1.43 1.45
2.00 1.92 1.89 1.89 2.02 2.04 2.03 2.05 2.08 2.01 1.88 1.70 1.50 1.43 1.41 1.36 1.30 1.30 1.32 1.27 1.25 1.20 1.21 1.28 1.26 1.25 1.26 1.21 1.22 1.25 1.24 1.22 1.24 1.26 1.21 1.23 1.29 1.28 1.22 1.17 1.16 1.13 1.13 1.14 1.15 1.17 1.20 1.21 1.21 1.24 1.25 1.29 1.31 1.34 1.36 1.38 1.41 1.36 1.37 1.38 1.39 1.34 1.28 1.30 1.31 1.29 1.26 1.24 1.21 1.18 1.20 1.18 1.28 1.38 1.44 1.40 1.30 1.24 1.23 1.20 1.14 1.25 1.37 1.48 1.45
2.11 2.12 1.99 1.89 1.98 2.02 2.02 2.04 1.98 2.00 1.93 1.74 1.76 1.62 1.47 1.47 1.48 1.42 1.40 1.36 1.32 1.27 1.21 1.25 1.32 1.26 1.25 1.26 1.24 1.25 1.24 1.22 1.23 1.22 1.20 1.16 1.17 1.19 1.20 1.16 1.13 1.14 1.14 1.14 1.15 1.15 1.15 1.19 1.21 1.22 1.25 1.29 1.32 1.33 1.33 1.34 1.32 1.30 1.34 1.37 1.35 1.33 1.31 1.29 1.25 1.25 1.24 1.22 1.18 1.24 1.23 1.22 1.23 1.20 1.15 1.12 1.13 1.16 1.31 1.35 1.27 1.30 1.28 1.21 1.25
2.10 2.12 2.19 2.12 2.10 2.12 2.04 2.01 2.07 1.94 1.85 1.84 1.79 1.72 1.66 1.60 1.58 1.59 1.56 1.55 1.44 1.36 1.29 1.24 1.30 1.34 1.29 1.27 1.26 1.25 1.23 1.25 1.24 1.21 1.19 1.15 1.10 1.06 1.08 1.11 1.11 1.10 1.10 1.10 1.12 1.16 1.17 1.14 1.13 1.16 1.20 1.24 1.25 1.26 1.28 1.29 1.30 1.30 1.34 1.38 1.33 1.30 1.28 1.27 1.26 1.25 1.22 1.17 1.16 1.16 1.13 1.12 1.15 1.19 1.20 1.26 1.35 1.39 1.35 1.31 1.17 1.22 1.22 1.14 1.17
2.03 2.02 2.07 2.11 2.15 2.17 2.15 2.13 2.05 1.93 2.00 2.00 1.96 2.02 1.86 1.60 1.52 1.62 1.75 1.77 1.59 1.53 1.42 1.32 1.25 1.28 1.35 1.31 1.27 1.23 1.21 1.18 1.19 1.21 1.19 1.17 1.14 1.06 0.97 1.00 1.05 1.05 1.05 1.05 1.04 1.05 1.09 1.14 1.16 1.13 1.11 1.14 1.19 1.20 1.21 1.20 1.18 1.19 1.22 1.26 1.35 1.35 1.27 1.23 1.23 1.27 1.24 1.21 1.21 1.18 1.13 1.10 1.14 1.20 1.23 1.28 1.30 1.26 1.20 1.17 1.15 1.21 1.11 0.98 0.84
1.94 1.96 2.05 2.14 2.17 2.15 2.14 2.12 2.09 2.03 1.98 1.95 1.93 2.06 2.05 1.86 1.72 1.65 1.57 1.63 1.73 1.69 1.57 1.49 1.41 1.33 1.32 1.34 1.36 1.32 1.26 1.18 1.11 1.12 1.13 1.13 1.12 1.11 1.07 0.97 0.97 1.00 1.01 1.00 1.01 1.02 1.00 1.00 1.03 1.06 1.09 1.09 1.11 1.14 1.14 1.14 1.13 1.11 1.09 1.11 1.15 1.22 1.30 1.27 1.21 1.19 1.20 1.16 1.15 1.16 1.16 1.13 1.20 1.27 1.27 1.25 1.24 1.26 1.25 1.13 1.07 1.02 0.98 0.92 0.90
1.90 1.91 1.99 2.05 2.10 2.13 2.18 2.14 2.11 2.08 2.05 2.03 2.01 1.95 1.92 1.93 1.89 1.82 1.78 1.78 1.66 1.54 1.57 1.62 1.51 1.45 1.37 1.36 1.36 1.42 1.40 1.31 1.23 1.14 1.11 1.08 1.05 1.05 1.05 1.03 0.96 0.91 0.94 0.98 0.99 1.00 1.01 1.01 1.00 1.01 0.98 1.03 1.08 1.12 1.12 1.09 1.10 1.09 1.08 1.05 1.04 1.03 1.05 1.14 1.24 1.25 1.29 1.26 1.19 1.15 1.15 1.17 1.12 1.12 1.18 1.16 1.19 1.04 1.01 0.97 0.97 0.96 0.93 0.90 0.94
1.83 1.84 1.87 1.92 1.99 2.04 2.05 2.11 2.12 2.15 2.11 2.09 2.04 2.02 1.98 1.91 1.92 1.91 1.84 1.90 1.89 1.78 1.72 1.63 1.61 1.60 1.48 1.35 1.35 1.42 1.40 1.39 1.35 1.26 1.19 1.14 1.11 1.07 1.01 0.97 0.95 0.94 0.93 0.94 0.97 1.00 1.01 1.00 0.98 0.97 0.98 0.96 0.96 1.05 1.13 1.12 1.08 1.06 1.05 1.06 1.04 1.03 1.00 0.98 0.96 1.01 1.10 1.13 1.13 1.06 1.13 1.23 1.14 1.17 1.25 1.29 1.18 1.09 1.05 0.99 1.03 1.02 1.02 0.98 1.03
1.77 1.82 1.83 1.88 1.92 1.95 1.99 2.05 2.09 2.09 2.15 2.13 2.07 2.01 1.99 1.98 1.95 1.87 1.75 1.70 1.73 1.82 1.86 1.83 1.85 1.83 1.75 1.62 1.47 1.37 1.36 1.38 1.36 1.30 1.26 1.21 1.19 1.18 1.14 1.06 0.97 0.92 0.90 0.93 0.95 0.96 1.00 1.03 1.00 0.97 0.97 0.97 0.96 0.91 0.93 1.04 1.10 1.08 1.05 1.03 1.03 1.01 1.01 0.98 0.95 0.90 0.89 0.92 0.95 0.98 1.02 1.08 1.11 1.13 1.18 1.24 1.23 1.22 1.21 1.13 1.10 1.09 1.09 1.14 1.12
1.58 1.71 1.74 1.78 1.85 1.91 1.95 1.98 2.06 2.12 2.13 2.12 2.08 2.04 2.01 2.01 1.99 1.99 1.91 1.86 1.82 1.78 1.77 1.79 1.76 1.83 1.91 1.86 1.72 1.55 1.46 1.41 1.37 1.35 1.32 1.25 1.21 1.19 1.17 1.14 1.07 1.01 0.95 0.89 0.87 0.89 0.90 0.93 0.98 1.00 0.97 0.95 0.97 0.97 0.95 0.95 0.99 1.02 1.02 1.04 1.04 1.06 1.05 1.03 0.99 0.97 0.92 0.87 0.86 0.88 0.90 0.95 0.98 0.98 1.00 1.04 1.09 1.14 1.19 1.22 1.25 1.21 1.09 1.00 0.91
1.29 1.37 1.52 1.65 1.76 1.78 1.82 1.89 1.95 2.01 2.07 2.05 2.00 2.01 2.05 2.06 2.08 2.11 2.01 1.98 1.92 1.83 1.74 1.71 1.68 1.65 1.72 1.81 1.82 1.75 1.67 1.62 1.54 1.45 1.38 1.36 1.33 1.28 1.24 1.21 1.15 1.09 1.05 1.03 0.99 0.94 0.91 0.89 0.87 0.87 0.92 0.95 0.99 0.99 0.99 0.98 0.91 0.91 0.96 0.99 1.05 1.11 1.13 1.16 1.14 1.07 1.05 1.02 1.00 0.98 0.97 0.97 1.00 1.01 1.00 1.01 1.00 1.04 1.10 1.13 1.12 1.14 1.03 0.92 0.91
1.18 1.26 1.32 1.42 1.54 1.67 1.76 1.82 1.85 1.91 1.94 1.96 1.97 1.99 2.07 2.12 2.12 2.17 2.10 2.05 1.99 1.96 1.96 1.90 1.85 1.80 1.79 1.82 1.85 1.84 1.84 1.85 1.77 1.64 1.54 1.47 1.40 1.35 1.33 1.31 1.26 1.23 1.19 1.19 1.19 1.17 1.15 1.11 1.05 0.96 0.89 0.88 0.93 1.00 1.03 1.04 0.99 0.93 0.90 0.92 0.96 0.98 1.05 1.15 1.19 1.18 1.16 1.15 1.14 1.14 1.14 1.14 1.16 1.17 1.16 1.15 1.13 1.13 1.03 0.87 0.95 1.08 1.02 1.00 0.92
1.09 1.13 1.19 1.33 1.45 1.49 1.54 1.62 1.68 1.75 1.82 1.87 1.94 1.95 1.98 2.00 2.08 2.14 2.15 2.14 2.09 2.08 2.03 1.97 1.96 1.98 1.97 1.92 1.92 1.92 1.92 1.92 1.92 1.88 1.79 1.68 1.57 1.50 1.45 1.40 1.35 1.31 1.30 1.29 1.32 1.30 1.28 1.28 1.24 1.19 1.11 1.03 0.99 0.98 1.03 1.09 1.06 1.03 1.01 0.98 0.95 0.93 0.99 1.11 1.12 1.09 1.13 1.14 1.17 1.23 1.22 1.23 1.24 1.24 1.25 1.26 1.26 1.26 1.23 1.12 1.08 1.03 0.95 0.96 0.99
1.05 1.10 1.12 1.15 1.25 1.39 1.42 1.42 1.45 1.49 1.61 1.78 1.94 2.00 2.04 2.00 2.01 2.06 2.07 2.09 2.08 2.09 2.11 2.09 2.02 2.00 2.03 2.02 2.00 1.97 1.91 1.91 2.00 2.03 1.95 1.84 1.75 1.68 1.60 1.52 1.42 1.38 1.40 1.37 1.34 1.36 1.36 1.35 1.34 1.30 1.27 1.22 1.18 1.14 1.11 1.11 1.10 1.11 1.14 1.08 1.00 0.94 1.07 1.13 1.12 1.11 1.09 1.12 1.15 1.18 1.19 1.25 1.30 1.32 1.32 1.33 1.32 1.31 1.27 1.26 1.25 1.22 1.13 1.07 1.06
0.98 0.98 1.04 1.07 1.14 1.18 1.32 1.40 1.37 1.39 1.45 1.54 1.66 1.84 2.03 2.04 2.02 2.02 2.01 2.05 2.06 2.05 2.06 2.10 2.10 2.08 2.09 2.07 2.05 2.06 2.04 1.99 2.07 2.10 2.02 2.01 1.94 1.89 1.80 1.66 1.57 1.52 1.49 1.45 1.44 1.41 1.41 1.42 1.42 1.40 1.37 1.34 1.31 1.28 1.26 1.24 1.23 1.22 1.21 1.14 1.09 1.12 1.26 1.22 1.22 1.23 1.19 1.15 1.15 1.22 1.27 1.30 1.32 1.35 1.35 1.35 1.34 1.36 1.40 1.45 1.43 1.38 1.27 1.14 1.06
0.94 0.90 0.89 0.96 1.02 1.10 1.15 1.22 1.29 1.35 1.37 1.40 1.46 1.55 1.70 1.85 1.95 1.97 1.95 1.97 1.99 2.00 2.01 2.02 2.03 2.04 2.06 2.04 2.02 2.07 2.17 2.15 2.14 2.10 2.12 2.14 2.09 2.13 2.09 1.99 1.94 1.77 1.63 1.54 1.51 1.49 1.49 1.50 1.51 1.52 1.49 1.46 1.43 1.39 1.37 1.35 1.34 1.35 1.32 1.29 1.29 1.33 1.33 1.35 1.35 1.31 1.26 1.23 1.22 1.20 1.22 1.29 1.32 1.33 1.34 1.34 1.34 1.37 1.39 1.40 1.37 1.34 1.34 1.29 1.19
0.90 0.87 0.87 0.87 0.91 0.95 1.02 1.07 1.13 1.18 1.23 1.30 1.33 1.41 1.52 1.56 1.61 1.74 1.82 1.87 1.90 1.90 1.90 1.93 1.92 1.92 1.97 2.06 2.11 2.16 2.22 2.19 2.06 2.11 2.20 2.05 1.96 2.02 2.07 2.08 2.03 2.06 1.95 1.81 1.67 1.62 1.66 1.64 1.63 1.63 1.61 1.57 1.54 1.52 1.49 1.47 1.45 1.42 1.40 1.40 1.41 1.42 1.46 1.45 1.42 1.36 1.31 1.27 1.23 1.16 1.16 1.19 1.25 1.30 1.33 1.33 1.36 1.37 1.36 1.34 1.32 1.31 1.32 1.34 1.34
0.86 0.88 0.89 0.87 0.85 0.85 0.86 0.90 0.97 1.06 1.11 1.17 1.21 1.21 1.24 1.32 1.42 1.47 1.54 1.66 1.80 1.83 1.86 1.91 1.92 1.90 1.88 1.93 2.05 2.12 2.14 2.09 2.04 2.04 2.05 2.12 2.17 2.13 2.15 2.12 2.03 1.96 1.93 1.98 1.92 1.82 1.77 1.78 1.79 1.75 1.72 1.69 1.66 1.63 1.59 1.55 1.50 1.46 1.44 1.43 1.44 1.46 1.48 1.45 1.41 1.37 1.35 1.29 1.22 1.17 1.13 1.15 1.13 1.16 1.26 1.35 1.39 1.40 1.42 1.45 1.46 1.46 1.39 1.33 1.31
0.79 0.79 0.81 0.80 0.79 0.80 0.83 0.86 0.89 0.92 0.94 0.98 1.03 1.11 1.17 1.21 1.17 1.20 1.29 1.40 1.49 1.58 1.67 1.76 1.83 1.89 1.92 1.89 1.95 2.02 2.07 2.09 2.09 2.10 2.16 2.24 2.24 2.18 2.12 2.07 2.03 1.99 1.92 1.92 1.96 2.01 1.96 1.89 1.95 1.90 1.90 1.80 1.75 1.74 1.71 1.62 1.55 1.51 1.48 1.45 1.45 1.44 1.43 1.41 1.40 1.40 1.32 1.25 1.22 1.19 1.16 1.14 1.14 1.15 1.19 1.26 1.34 1.39 1.37 1.40 1.46 1.50 1.52 1.46 1.39
0.71 0.70 0.68 0.71 0.76 0.81 0.79 0.78 0.79 0.78 0.79 0.81 0.84 0.91 0.95 0.98 1.03 1.12 1.20 1.27 1.37 1.45 1.53 1.64 1.75 1.86 1.92 1.96 1.92 1.90 1.95 1.98 2.01 2.13 2.22 2.19 2.13 2.18 2.21 2.18 2.12 2.06 2.01 1.96 1.90 1.90 1.89 1.94 1.94 1.91 1.85 1.80 1.76 1.72 1.69 1.66 1.62 1.58 1.52 1.49 1.47 1.42 1.40 1.37 1.37 1.33 1.27 1.26 1.22 1.17 1.16 1.20 1.20 1.19 1.20 1.21 1.18 1.19 1.26 1.27 1.28 1.28 1.35 1.37 1.35
0.69 0.69 0.68 0.67 0.67 0.67 0.67 0.67 0.68 0.68 0.69 0.71 0.73 0.75 0.79 0.85 0.96 1.12 1.25 1.27 1.32 1.40 1.49 1.57 1.63 1.72 1.80 1.84 1.86 1.91 1.97 2.05 2.09 2.08 2.11 2.20 2.17 2.19 2.18 2.13 2.09 2.04 2.00 2.02 1.98 1.96 1.93 1.85 1.86 1.89 1.93 1.87 1.84 1.79 1.70 1.68 1.63 1.58 1.53 1.49 1.44 1.40 1.40 1.39 1.36 1.33 1.31 1.29 1.26 1.23 1.23 1.25 1.30 1.27 1.18 1.14 1.10 1.11 1.16 1.16 1.18 1.20 1.27 1.33 1.32
0.64 0.64 0.65 0.65 0.66 0.68 0.69 0.70 0.70 0.70 0.71 0.73 0.73 0.73 0.75 0.83 0.97 1.10 1.13 1.13 1.11 1.16 1.30 1.36 1.40 1.43 1.47 1.64 1.72 1.76 1.84 1.91 1.99 2.04 2.11 2.13 2.16 2.17 2.20 2.14 2.08 2.00 1.97 2.05 2.10 2.12 2.05 2.05 1.95 1.88 1.89 1.94 1.94 1.84 1.70 1.62 1.58 1.52 1.49 1.48 1.46 1.43 1.43 1.45 1.46 1.44 1.40 1.37 1.33 1.33 1.31 1.29 1.22 1.18 1.19 1.16 1.13 1.13 1.20 1.19 1.17 1.19 1.26 1.29 1.26
0.59 0.59 0.61 0.64 0.64 0.64 0.65 0.66 0.69 0.69 0.70 0.72 0.77 0.78 0.77 0.82 0.87 0.90 0.97 1.02 1.03 1.02 0.98 0.95 0.95 1.01 1.06 1.17 1.32 1.44 1.56 1.63 1.87 2.07 2.11 2.09 2.07 2.03 2.01 2.01 2.01 1.98 1.97 1.98 2.00 2.02 1.99 1.95 1.92 1.86 1.89 1.93 1.88 1.74 1.63 1.57 1.54 1.55 1.50 1.43 1.40 1.39 1.40 1.40 1.34 1.30 1.31 1.34 1.30 1.30 1.29 1.30 1.24 1.22 1.18 1.12 1.11 1.16 1.26 1.27 1.31 1.30 1.33 1.37 1.29
0.54 0.54 0.56 0.56 0.58 0.61 0.63 0.64 0.65 0.65 0.66 0.67 0.70 0.76 0.84 0.84 0.83 0.80 0.79 0.88 0.93 0.95 0.92 0.83 0.81 0.86 0.94 1.05 1.17 1.20 1.25 1.36 1.47 1.51 1.61 1.77 1.92 1.97 1.97 1.96 1.95 1.92 1.89 1.93 1.99 1.91 1.88 1.85 1.83 1.81 1.83 1.88 1.79 1.67 1.57 1.51 1.49 1.50 1.53 1.50 1.45 1.39 1.37 1.35 1.33 1.29 1.34 1.35 1.34 1.33 1.30 1.30 1.25 1.22 1.16 1.09 1.11 1.20 1.30 1.34 1.36 1.43 1.39 1.37 1.33
0.45 0.46 0.49 0.51 0.53 0.53 0.53 0.53 0.55 0.56 0.56 0.52 0.50 0.50 0.53 0.59 0.63 0.67 0.68 0.69 0.70 0.71 0.75 0.85 0.93 0.97 0.96 0.98 1.13 1.24 1.29 1.35 1.36 1.36 1.37 1.38 1.38 1.46 1.59 1.69 1.74 1.76 1.79 1.81 1.80 1.78 1.75 1.75 1.80 1.88 1.94 1.98 1.84 1.68 1.63 1.59 1.57 1.57 1.59 1.64 1.60 1.48 1.40 1.34 1.30 1.35 1.39 1.38 1.37 1.36 1.33 1.26 1.19 1.19 1.18 1.17 1.19 1.24 1.30 1.37 1.41 1.46 1.44 1.41 1.35
0.44 0.45 0.47 0.50 0.52 0.53 0.56 0.57 0.57 0.58 0.59 0.61 0.61 0.60 0.58 0.55 0.59 0.67 0.71 0.74 0.79 0.84 0.87 0.92 0.96 0.98 0.97 0.95 0.97 1.06 1.16 1.20 1.22 1.23 1.24 1.26 1.28 1.30 1.34 1.42 1.47 1.50 1.57 1.64 1.58 1.62 1.72 1.74 1.76 1.84 1.95 1.96 1.88 1.79 1.75 1.73 1.72 1.71 1.70 1.67 1.61 1.55 1.45 1.38 1.44 1.48 1.43 1.41 1.38 1.38 1.36 1.31 1.25 1.24 1.27 1.31 1.33 1.33 1.35 1.37 1.41 1.42 1.44 1.45 1.41
0.45 0.44 0.45 0.46 0.47 0.49 0.50 0.49 0.48 0.49 0.53 0.57 0.59 0.60 0.62 0.63 0.61 0.61 0.69 0.77 0.78 0.78 0.81 0.81 0.80 0.87 0.98 1.00 0.98 0.96 1.01 1.09 1.11 1.10 1.12 1.15 1.18 1.21 1.25 1.30 1.37 1.47 1.51 1.45 1.42 1.46 1.60 1.71 1.74 1.76 1.81 1.82 1.80 1.76 1.76 1.79 1.78 1.82 1.87 1.85 1.79 1.69 1.61 1.59 1.66 1.64 1.54 1.49 1.50 1.48 1.46 1.42 1.41 1.41 1.44 1.45 1.42 1.36 1.39 1.40 1.44 1.47 1.46 1.43 1.44
0.48 0.47 0.47 0.47 0.47 0.48 0.49 0.50 0.50 0.50 0.51 0.52 0.55 0.56 0.56 0.56 0.55 0.56 0.56 0.59 0.65 0.69 0.73 0.79 0.89 0.97 0.99 0.98 0.93 0.92 0.97 1.01 1.03 1.03 1.04 1.07 1.13 1.17 1.21 1.24 1.30 1.37 1.44 1.40 1.39 1.39 1.47 1.56 1.65 1.69 1.73 1.78 1.76 1.75 1.76 1.80 1.84 1.89 1.94 1.95 1.88 1.83 1.81 1.86 1.85 1.75 1.69 1.66 1.62 1.59 1.57 1.55 1.58 1.59 1.60 1.64 1.66 1.64 1.60 1.58 1.57 1.53 1.52 1.53 1.54
0.50 0.50 0.51 0.51 0.51 0.50 0.51 0.53 0.53 0.53 0.52 0.53 0.54 0.55 0.56 0.58 0.61 0.61 0.59 0.55 0.52 0.54 0.61 0.69 0.75 0.77 0.77 0.86 0.94 0.98 0.96 0.94 0.96 0.98 1.02 1.06 1.12 1.18 1.21 1.17 1.13 1.20 1.28 1.34 1.37 1.37 1.39 1.45 1.52 1.61 1.70 1.72 1.72 1.71 1.72 1.80 1.88 1.92 1.89 1.83 1.83 1.85 1.88 1.89 1.89 1.89 1.82 1.76 1.69 1.64 1.64 1.68 1.74 1.75 1.72 1.71 1.73 1.73 1.72 1.73 1.72 1.70 1.66 1.66 1.67
0.55 0.53 0.52 0.52 0.52 0.53 0.54 0.55 0.56 0.55 0.55 0.55 0.54 0.53 0.55 0.55 0.54 0.55 0.58 0.60 0.59 0.58 0.60 0.66 0.74 0.79 0.80 0.83 0.88 0.91 0.92 0.89 0.91 0.99 1.08 1.13 1.17 1.19 1.12 1.09 1.09 1.11 1.16 1.26 1.33 1.36 1.40 1.43 1.49 1.54 1.65 1.73 1.75 1.72 1.71 1.74 1.83 1.90 1.94 1.91 1.87 1.88 1.91 1.92 1.89 1.83 1.84 1.82 1.77 1.74 1.76 1.80 1.83 1.82 1.82 1.82 1.81 1.81 1.82 1.82 1.81 1.81 1.81 1.78 1.78
0.60 0.58 0.57 0.56 0.55 0.55 0.56 0.56 0.57 0.57 0.56 0.56 0.56 0.57 0.58 0.59 0.59 0.59 0.58 0.58 0.58 0.59 0.58 0.60 0.61 0.60 0.65 0.77 0.87 0.88 0.85 0.88 0.97 1.07 1.13 1.17 1.15 1.13 1.10 1.11 1.11 1.14 1.15 1.20 1.29 1.35 1.39 1.43 1.49 1.53 1.58 1.64 1.71 1.74 1.75 1.76 1.81 1.86 1.92 1.97 2.02 2.07 1.99 1.84 1.74 1.80 1.86 1.85 1.85 1.85 1.85 1.84 1.84 1.85 1.85 1.83 1.85 1.88 1.87 1.89 1.89 1.89 1.88 1.86 1.86
0.63 0.61 0.60 0.60 0.60 0.59 0.58 0.56 0.55 0.56 0.55 0.55 0.55 0.54 0.54 0.57 0.60 0.61 0.61 0.61 0.62 0.61 0.59 0.59 0.61 0.63 0.63 0.66 0.80 0.87 0.95 1.04 1.10 1.10 1.04 1.05 1.15 1.19 1.22 1.24 1.26 1.24 1.24 1.28 1.33 1.36 1.36 1.42 1.49 1.52 1.54 1.64 1.71 1.77 1.81 1.84 1.86 1.87 1.90 1.98 2.05 2.07 1.89 1.73 1.71 1.77 1.86 1.91 1.92 1.94 1.95 1.93 1.95 1.96 1.96 1.92 1.89 1.90 1.92 1.95 1.95 1.91 1.90 1.90 1.88
0.64 0.65 0.63 0.61 0.60 0.60 0.58 0.56 0.56 0.57 0.56 0.56 0.56 0.55 0.52 0.52 0.56 0.59 0.61 0.62 0.62 0.63 0.65 0.66 0.67 0.69 0.74 0.81 0.78 0.82 0.89 0.91 0.93 0.95 1.07 1.11 1.12 1.12 1.12 1.15 1.18 1.22 1.27 1.32 1.38 1.41 1.42 1.41 1.47 1.53 1.56 1.57 1.59 1.66 1.73 1.76 1.81 1.86 1.97 1.96 1.98 1.99 1.91 1.85 1.84 1.90 1.92 1.89 1.91 1.97 2.00 2.01 2.02 2.04 2.04 2.02 1.99 2.00 2.01 2.02 2.02 1.98 1.92 1.89 1.89
0.63 0.64 0.65 0.66 0.64 0.62 0.61 0.60 0.59 0.58 0.58 0.58 0.58 0.58 0.56 0.54 0.52 0.53 0.54 0.54 0.54 0.57 0.60 0.61 0.63 0.68 0.74 0.76 0.80 0.90 0.90 0.92 0.91 0.88 0.85 0.86 0.90 0.97 0.98 0.94 0.91 0.93 0.99 1.07 1.17 1.31 1.41 1.42 1.44 1.47 1.53 1.60 1.62 1.63 1.70 1.76 1.83 1.93 2.00 2.06 2.02 1.91 1.82 1.82 1.89 1.93 1.96 2.00 1.97 1.96 1.96 1.98 2.03 2.08 2.11 2.12 2.10 2.11 2.12 2.09 2.07 2.07 2.05 1.99 1.98
0.63 0.65 0.67 0.68 0.68 0.67 0.65 0.63 0.61 0.60 0.60 0.60 0.61 0.61 0.61 0.61 0.61 0.61 0.60 0.59 0.58 0.56 0.54 0.53 0.54 0.59 0.68 0.77 0.83 0.85 0.82 0.82 0.84 0.85 0.83 0.81 0.82 0.83 0.85 0.92 0.99 1.04 1.08 1.10 1.14 1.21 1.29 1.36 1.46 1.58 1.65 1.71 1.80 1.89 1.96 2.01 2.05 2.08 2.03 2.05 2.03 1.97 1.89 1.80 1.85 1.91 1.92 1.93 1.97 1.98 2.00 2.06 2.15 2.13 2.08 2.05 2.08 2.06 2.08 2.08 2.02 2.00 2.04 2.04 2.12
0.64 0.65 0.66 0.68 0.70 0.70 0.69 0.67 0.68 0.68 0.67 0.65 0.64 0.63 0.64 0.65 0.66 0.67 0.68 0.68 0.66 0.66 0.67 0.69 0.72 0.77 0.84 0.88 0.86 0.87 0.85 0.83 0.83 0.80 0.78 0.78 0.79 0.83 0.88 0.92 0.97 0.99 1.03 1.08 1.14 1.21 1.29 1.36 1.43 1.54 1.63 1.73 1.81 1.87 1.94 2.01 2.09 2.05 2.03 2.02 2.03 2.01 1.90 1.83 1.85 1.95 1.98 1.97 1.99 1.97 1.95 1.97 1.95 1.97 2.02 2.03 1.98 1.93 1.93 1.91 1.91 1.91 1.92 1.90 1.93
0.66 0.66 0.67 0.68 0.68 0.68 0.69 0.70 0.71 0.70 0.70 0.71 0.71 0.72 0.75 0.75 0.76 0.77 0.75 0.73 0.72 0.72 0.72 0.70 0.71 0.74 0.76 0.78 0.81 0.84 0.84 0.82 0.79 0.78 0.78 0.80 0.83 0.87 0.90 0.93 1.01 1.10 1.14 1.18 1.23 1.24 1.22 1.21 1.26 1.37 1.47 1.54 1.61 1.70 1.78 1.87 1.93 1.92 1.94 1.97 1.98 1.94 1.86 1.86 1.91 1.96 2.03 2.07 2.07 2.08 2.07 2.07 2.05 2.06 2.08 2.09 2.08 2.09 2.07 1.96 1.86 1.81 1.78 1.77 1.84
0.63 0.64 0.66 0.67 0.70 0.71 0.73 0.74 0.74 0.74 0.74 0.76 0.77 0.76 0.75 0.75 0.76 0.78 0.78 0.77 0.77 0.77 0.76 0.76 0.78 0.79 0.79 0.83 0.86 0.89 0.88 0.88 0.87 0.89 0.93 0.97 1.01 1.00 1.05 1.08 1.06 1.04 1.07 1.11 1.13 1.16 1.18 1.18 1.18 1.23 1.32 1.43 1.50 1.52 1.56 1.61 1.66 1.69 1.75 1.83 1.87 1.93 1.97 1.95 1.99 2.02 2.02 2.02 2.02 2.00 2.00 2.01 2.05 2.07 2.06 2.03 2.03 1.97 1.92 1.92 1.91 1.83 1.78 1.80 1.86
0.64 0.63 0.63 0.64 0.67 0.69 0.71 0.74 0.76 0.77 0.78 0.78 0.78 0.77 0.79 0.78 0.76 0.75 0.76 0.78 0.80 0.80 0.81 0.83 0.85 0.85 0.85 0.85 0.86 0.87 0.87 0.86 0.86 0.88 0.87 0.87 0.88 0.90 0.90 0.90 0.87 0.88 0.92 0.97 1.03 1.07 1.08 1.11 1.14 1.17 1.18 1.25 1.33 1.38 1.42 1.47 1.45 1.42 1.51 1.64 1.73 1.78 1.82 1.90 2.03 2.12 2.11 2.02 1.95 1.91 1.89 1.91 1.95 1.99 1.97 1.96 1.95 1.94 1.93 1.93 1.92 1.87 1.84 1.83 1.83
0.65 0.65 0.65 0.66 0.66 0.68 0.70 0.72 0.75 0.77 0.78 0.81 0.82 0.81 0.81 0.80 0.79 0.78 0.77 0.79 0.81 0.81 0.83 0.85 0.86 0.87 0.88 0.88 0.89 0.89 0.89 0.91 0.92 0.89 0.84 0.83 0.82 0.79 0.80 0.82 0.83 0.81 0.82 0.86 0.92 0.96 0.98 1.00 1.04 1.07 1.10 1.15 1.20 1.26 1.30 1.34 1.36 1.37 1.37 1.42 1.51 1.60 1.69 1.75 1.82 1.86 1.93 1.95 1.85 1.78 1.79 1.91 1.98 2.01 1.99 1.97 1.98 1.96 1.91 1.88 1.84 1.80 1.83 1.91 1.94
0.65 0.65 0.65 0.65 0.66 0.67 0.70 0.72 0.74 0.75 0.76 0.77 0.80 0.80 0.81 0.81 0.83 0.81 0.82 0.82 0.85 0.92 0.96 0.96 0.92 0.87 0.87 0.86 0.87 0.90 0.91 0.89 0.89 0.88 0.84 0.82 0.80 0.78 0.76 0.75 0.74 0.74 0.76 0.78 0.83 0.88 0.93 0.97 0.99 1.01 1.05 1.09 1.12 1.15 1.20 1.24 1.29 1.34 1.38 1.38 1.38 1.43 1.52 1.59 1.63 1.66 1.67 1.68 1.70 1.70 1.70 1.76 1.88 1.96 1.99 2.00 1.98 1.94 1.88 1.81 1.77 1.73 1.76 1.89 1.95
0.67 0.67 0.68 0.69 0.69 0.69 0.69 0.71 0.72 0.74 0.75 0.76 0.78 0.79 0.80 0.82 0.82 0.80 0.82 0.85 0.86 0.89 0.97 1.02 1.01 0.96 0.89 0.86 0.86 0.86 0.85 0.84 0.84 0.83 0.81 0.80 0.79 0.77 0.75 0.73 0.73 0.72 0.71 0.71 0.73 0.78 0.84 0.89 0.94 0.98 1.00 1.05 1.08 1.09 1.10 1.15 1.20 1.25 1.31 1.37 1.39 1.39 1.42 1.45 1.49 1.54 1.59 1.58 1.57 1.55 1.58 1.65 1.73 1.76 1.81 1.80 1.79 1.80 1.81 1.81 1.86 1.88 1.92 1.91 1.87
0.71 0.71 0.72 0.72 0.72 0.73 0.74 0.75 0.76 0.76 0.75 0.76 0.77 0.77 0.79 0.80 0.80 0.81 0.83 0.85 0.87 0.90 0.94 0.95 0.95 0.95 0.91 0.86 0.85 0.84 0.83 0.82 0.80 0.80 0.81 0.80 0.77 0.75 0.74 0.73 0.72 0.71 0.70 0.68 0.69 0.71 0.75 0.80 0.86 0.92 0.96 1.00 1.05 1.06 1.06 1.07 1.12 1.17 1.23 1.30 1.36 1.39 1.40 1.42 1.44 1.47 1.52 1.55 1.57 1.58 1.61 1.62 1.63 1.66 1.72 1.78 1.81 1.83 1.82 1.81 1.80 1.76 1.76 1.77 1.74
0.73 0.74 0.74 0.74 0.74 0.75 0.77 0.78 0.78 0.78 0.77 0.77 0.76 0.76 0.77 0.77 0.77 0.79 0.80 0.83 0.87 0.89 0.91 0.90 0.89 0.88 0.87 0.83 0.79 0.79 0.80 0.79 0.79 0.81 0.80 0.78 0.76 0.74 0.72 0.70 0.69 0.69 0.68 0.67 0.67 0.68 0.70 0.72 0.77 0.83 0.90 0.97 1.02 1.04 1.04 1.04 1.07 1.12 1.18 1.25 1.33 1.37 1.39 1.41 1.45 1.49 1.51 1.54 1.56 1.58 1.60 1.61 1.63 1.66 1.67 1.68 1.67 1.68 1.68 1.67 1.69 1.71 1.69 1.64 1.57
0.74 0.74 0.75 0.75 0.75 0.77 0.77 0.78 0.78 0.78 0.77 0.76 0.75 0.75 0.74 0.74 0.75 0.76 0.76 0.78 0.80 0.82 0.84 0.85 0.85 0.84 0.83 0.83 0.82 0.79 0.77 0.78 0.79 0.79 0.77 0.75 0.73 0.72 0.70 0.69 0.68 0.67 0.67 0.66 0.66 0.66 0.67 0.69 0.71 0.75 0.81 0.90 0.98 1.02 1.04 1.05 1.06 1.08 1.14 1.20 1.28 1.34 1.37 1.39 1.41 1.45 1.49 1.52 1.54 1.57 1.59 1.59 1.60 1.59 1.60 1.61 1.58 1.59 1.60 1.59 1.53 1.52 1.56 1.57 1.55
Wind_Speed
19 19 19 19 18 18 18 18 18 18 18 18 18 17 17 16 16 15 14 14 13 13 12 11 11 11 10 10 9 9 8 8 8 7 7 7 6 6 5 5 5 5 5 5 4 4 4 4 5 5 5 5 5 6 6 6 6 7 7 8 8 8 8 8 8 8 8 7 7 7 7 7 6 6 7 7 7 8 9 10 9 9 9 9 10
19 19 19 19 19 19 19 19 19 19 19 19 18 18 18 17 17 16 15 15 14 14 13 12 12 11 11 10 10 9 9 9 8 8 8 7 7 6 6 6 6 5 5 5 5 4 4 4 5 5 5 6 6 6 6 6 6 7 8 8 8 9 9 9 9 9 9 9 8 8 8 8 8 8 8 8 9 9 10 10 10 10 10 10 10
20 20 20 20 19 19 20 19 19 19 19 19 19 19 19 18 18 17 17 16 15 15 14 13 13 12 12 11 11 10 10 10 9 9 8 8 8 7 7 7 6 6 6 5 5 5 5 5 5 5 5 5 6 6 6 6 7 7 7 8 8 9 9 10 10 10 10 10 10 9 9 9 9 9 9 10 10 10 10 10 11 11 10 10 11
21 21 21 21 21 19 20 20 20 20 20 19 20 20 19 19 19 18 18 17 16 16 15 15 14 14 13 13 12 12 11 11 10 10 9 9 9 8 8 7 7 7 7 7 6 6 6 5 5 5 5 5 6 6 6 7 7 7 7 7 8 8 8 9 9 10 10 10 10 10 10 10 10 10 11 11 11 11 11 11 11 12 12 11 12
21 22 22 23 23 21 21 21 21 21 20 20 20 20 20 20 19 19 19 18 17 17 17 16 15 15 15 14 14 13 13 12 12 11 11 10 10 9 9 9 8 8 8 8 7 7 7 6 6 6 6 6 6 6 6 7 7 7 7 7 8 8 9 9 10 10 10 11 11 11 11 11 11 11 11 11 11 12 12 12 12 12 13 12 12
20 22 22 23 24 23 22 22 21 21 21 20 20 20 20 20 20 20 19 19 18 18 18 17 17 16 16 16 15 15 14 14 13 13 12 12 11 11 10 10 9 9 9 8 8 8 8 7 7 7 7 7 7 7 7 7 7 8 8 8 8 9 9 10 10 10 11 11 11 11 11 11 12 12 12 12 12 12 12 13 13 13 13 13 13
18 20 21 22 24 24 23 22 21 20 20 20 20 20 20 20 20 20 20 20 20 19 19 19 18 18 17 17 17 16 16 16 15 15 14 13 13 12 12 11 11 10 10 10 9 9 9 8 8 8 8 8 8 8 8 8 8 8 9 9 9 9 9 9 10 10 11 11 11 11 12 12 12 12 12 11 12 12 13 13 14 13 13 12 13
17 18 19 20 22 22 22 22 21 19 18 19 20 20 20 20 20 20 20 20 20 20 20 19 19 19 19 19 18 18 18 18 17 17 16 16 15 14 13 13 12 12 12 11 11 11 10 10 10 10 9 9 9 9 9 9 9 9 9 9 9 10 10 10 10 10 11 11 11 11 11 12 12 12 12 12 13 13 13 13 14 13 13 13 14
16 16 17 18 19 19 20 20 21 20 19 18 19 19 20 20 20 19 20 20 20 21 21 20 20 20 20 20 20 19 19 19 19 19 18 18 17 16 15 15 14 14 13 13 13 12 12 12 12 11 11 11 11 11 11 10 10 10 10 10 10 11 11 11 11 11 11 11 12 12 12 12 12 13 13 13 13 14 13 13 13 13 13 14 14
16 15 15 16 16 16 17 18 19 20 20 20 20 19 19 20 20 19 19 20 20 21 21 21 21 21 21 21 21 21 20 20 20 20 20 20 19 18 18 17 17 16 15 15 14 14 14 14 13 13 13 13 13 13 13 13 12 12 12 12 12 12 12 12 12 13 13 13 13 13 13 13 13 13 13 14 14 14 14 14 14 14 13 14 15
16 16 17 17 16 15 16 16 17 18 19 20 21 21 20 20 20 20 19 19 20 20 21 22 22 21 21 21 21 21 21 21 22 22 22 21 21 20 20 19 19 18 18 17 17 16 16 15 15 15 15 15 15 15 15 15 15 15 14 14 14 13 13 13 13 14 14 14 14 14 14 14 14 14 14 14 14 14 14 14 14 14 13 14 15
17 17 17 17 16 16 16 17 17 17 18 19 20 21 21 21 21 22 21 21 20 21 21 21 22 22 22 22 22 22 22 22 23 23 23 23 23 22 22 21 21 20 20 19 19 18 18 18 17 17 17 16 16 17 17 17 17 17 17 17 16 16 16 15 15 15 15 15 15 15 15 15 15 14 14 14 14 14 14 14 14 14 15 15 16
17 18 17 17 16 16 17 18 19 19 19 19 20 20 21 22 22 23 23 23 23 23 22 22 22 23 23 23 22 22 22 23 23 24 24 24 25 24 24 23 23 22 22 21 21 21 20 20 19 19 19 18 18 18 18 18 19 19 19 18 18 18 18 18 18 17 17 17 17 17 16 16 16 16 16 15 15 15 15 16 16 16 16 17 17
17 18 18 18 17 16 17 18 20 20 20 20 21 21 21 22 23 23 24 24 24 24 25 25 24 24 25 25 25 24 23 23 24 24 25 25 25 25 25 25 24 24 24 23 23 22 22 21 21 21 21 20 20 20 19 19 20 20 20 20 20 20 20 20 19 19 19 19 19 19 19 18 18 18 17 17 17 17 17 17 18 18 18 18 18
16 17 18 19 19 18 18 18 19 19 20 21 21 22 23 23 24 24 24 24 25 25 26 26 26 26 26 26 27 27 26 26 25 25 26 26 26 26 26 26 26 25 25 25 24 24 23 23 23 23 22 22 22 22 21 21 21 21 21 21 22 22 21 21 21 21 21 21 21 21 21 21 21 20 20 19 19 19 19 20 20 19 19 19 19
15 16 17 18 19 19 19 19 19 19 20 21 22 23 23 24 24 24 25 25 26 26 26 27 28 28 28 28 28 28 28 28 28 27 27 27 27 27 27 27 27 26 26 26 26 25 25 25 24 24 24 24 24 24 24 23 23 22 22 23 23 23 23 23 23 23 23 23 23 23 23 23 23 23 22 22 21 21 21 21 21 20 20 21 21
15 15 16 17 18 18 19 19 20 20 20 20 21 22 23 24 24 24 25 26 27 27 27 28 28 29 29 29 29 29 29 29 30 29 29 29 29 28 28 28 28 28 27 27 27 27 27 27 27 26 26 26 26 26 25 25 24 24 24 24 24 24 23 23 24 24 24 24 24 24 24 24 24 24 23 23 23 22 22 22 22 21 21 21 21
15 15 15 16 17 17 18 18 19 20 20 20 21 21 22 23 23 24 25 26 27 27 27 28 28 29 29 30 30 30 31 31 31 31 31 31 31 31 30 30 29 29 29 28 28 28 28 28 28 28 28 28 28 27 27 26 26 26 26 26 25 25 24 24 24 24 24 24 24 24 24 24 24 24 24 24 24 23 23 23 23 23 23 22 22
16 16 16 16 16 17 18 18 19 20 21 21 21 21 22 22 23 24 25 26 26 27 27 28 29 29 30 30 30 31 31 31 32 32 32 32 32 32 32 32 31 31 30 30 30 29 29 29 29 29 29 29 29 29 29 28 28 28 27 27 27 26 26 25 25 24 24 24 24 24 25 25 25 25 25 25 25 24 25 25 24 24 24 23 23
18 17 17 17 17 18 19 19 20 20 21 22 23 23 23 23 23 23 24 25 26 26 27 28 28 29 30 31 31 31 31 32 32 32 32 33 33 34 33 33 33 32 32 31 31 31 30 30 30 31 31 31 31 31 30 29 29 29 28 28 28 27 27 26 26 26 25 25 25 25 25 25 25 25 25 26 26 26 26 26 25 24 24 24 24
20 20 19 19 19 19 20 20 20 21 21 22 23 24 24 24 24 24 24 25 25 26 26 27 28 29 30 31 31 31 32 32 32 31 31 31 32 33 33 33 32 32 32 32 32 31 31 31 31 31 32 32 32 32 31 31 30 30 29 29 29 28 28 27 27 26 26 26 26 25 25 25 26 26 26 26 27 27 26 26 25 25 25 24 24
22 22 22 21 21 21 21 21 21 21 21 21 22 23 24 24 25 25 25 25 26 26 26 26 27 29 30 31 32 32 32 31 30 30 30 30 30 31 31 32 32 32 32 32 32 31 31 31 31 32 32 32 32 32 32 32 31 31 31 30 30 29 29 28 28 28 27 27 26 26 26 25 25 26 26 26 27 27 26 26 26 26 26 26 25
25 24 24 23 23 23 22 23 23 23 22 22 22 23 23 24 24 25 25 26 27 27 27 26 26 27 28 30 31 32 32 31 31 30 29 29 30 31 31 32 33 33 32 32 32 31 31 31 31 32 32 32 32 32 32 32 32 31 31 31 31 30 29 29 29 29 28 28 28 27 27 26 26 26 26 26 26 26 26 26 26 26 26 26 26
27 26 26 26 26 25 25 25 25 25 24 24 24 24 24 24 24 24 25 25 26 27 28 27 27 28 28 28 29 30 30 30 31 31 30 29 29 31 32 32 33 34 33 32 32 31 30 30 30 31 31 31 32 32 32 32 32 32 32 32 31 31 30 30 29 29 29 29 29 29 29 28 28 28 27 27 26 26 26 26 26 26 26 26 26
29 29 29 29 29 28 28 28 27 27 26 26 25 25 25 25 25 25 25 25 26 26 27 27 28 28 28 28 27 27 27 28 29 29 29 29 29 30 31 31 32 33 33 33 33 33 31 31 31 31 31 31 32 32 32 32 33 33 32 32 31 31 31 31 30 30 29 29 30 30 30 30 30 30 30 29 28 28 27 27 27 27 26 27 27
31 31 31 31 31 31 31 30 30 30 30 29 28 28 27 27 27 26 26 25 26 26 26 26 27 27 28 28 27 26 26 27 28 28 28 28 28 29 29 30 30 32 33 34 35 35 35 34 34 33 33 33 33 33 32 32 33 33 33 33 32 32 32 32 31 31 31 30 30 30 30 30 30 30 30 30 30 30 29 29 28 28 27 27 26
33 33 33 33 33 33 33 33 33 33 33 32 31 30 30 29 28 27 26 26 26 26 26 26 26 26 26 27 27 27 26 27 27 27 27 27 27 27 28 28 29 29 30 31 33 34 35 36 36 36 36 36 35 35 34 34 34 34 34 33 33 33 33 33 33 32 32 32 31 31 31 30 30 30 30 30 30 30 30 29 29 28 27 26 26
34 34 34 35 35 35 35 35 35 35 34 34 34 33 32 31 31 30 29 29 28 28 27 27 27 27 28 27 27 27 27 27 26 26 26 26 26 27 27 27 27 28 28 28 29 30 32 34 35 36 37 37 37 37 36 36 36 35 35 35 35 35 35 35 35 34 33 33 32 32 31 31 31 31 30 30 30 29 29 29 28 27 27 26 26
35 35 36 36 36 36 36 36 36 36 36 36 35 35 34 34 33 33 33 32 31 31 30 30 30 30 30 29 28 28 28 28 28 28 28 28 28 28 29 29 29 29 28 28 29 29 30 32 34 34 34 35 36 37 37 37 37 37 36 36 36 36 36 36 36 36 35 35 34 33 32 32 31 31 31 30 30 29 28 28 27 27 26 26 26
36 36 36 36 37 37 37 37 38 38 38 38 38 38 38 37 37 36 36 36 36 36 35 35 34 33 32 31 31 30 30 30 31 31 32 32 31 31 31 31 31 31 31 30 29 29 29 30 31 33 33 34 34 35 35 36 36 36 36 36 37 37 37 38 38 37 36 36 35 34 33 33 32 31 31 30 30 29 29 28 28 27 26 26 26
36 36 36 36 37 37 38 38 39 39 40 40 41 41 41 41 41 41 41 41 41 40 39 38 36 35 34 33 32 32 33 33 33 33 33 33 33 33 33 33 33 33 32 32 31 30 29 28 29 31 32 34 34 34 34 34 34 35 35 36 36 36 37 37 37 37 37 36 35 34 33 32 32 31 31 30 30 29 29 29 28 28 27 27 27
35 35 36 36 37 37 38 38 39 39 40 41 41 42 42 43 42 42 42 42 41 41 40 39 38 38 37 36 35 34 34 34 34 34 34 34 34 34 34 34 34 34 33 33 32 32 32 31 30 30 31 33 34 34 34 34 34 34 35 35 35 35 35 35 35 36 36 35 34 33 32 32 31 31 31 31 30 30 30 29 29 29 29 29 29
36 36 36 37 37 38 38 39 39 40 40 41 41 42 43 43 43 43 43 43 43 43 43 42 41 40 39 38 37 36 36 36 35 35 35 35 34 34 34 34 34 34 33 33 33 33 33 33 32 32 31 32 33 34 34 34 34 34 35 35 34 34 34 34 34 35 35 34 33 33 32 31 31 31 30 31 31 31 31 31 30 30 30 30 30
37 37 37 38 38 39 39 39 39 40 40 41 41 42 42 43 43 43 43 44 44 44 44 43 43 42 41 41 40 39 38 38 37 37 37 36 35 35 34 34 34 34 33 33 34 34 33 33 34 33 33 33 33 34 34 34 34 34 34 34 34 34 33 33 34 34 34 34 34 33 32 31 31 31 31 30 31 31 31 31 31 31 31 31 30
38 38 39 39 39 40 40 40 40 40 41 41 41 42 43 43 43 44 44 44 45 45 45 45 44 44 44 43 42 41 41 40 39 38 38 37 36 35 35 34 35 34 34 34 34 34 34 34 35 35 34 34 33 33 34 33 33 33 34 33 34 34 34 34 34 33 33 34 34 34 33 32 32 32 31 31 31 31 31 31 32 32 32 31 31
39 39 40 40 40 41 41 41 41 41 42 42 42 43 43 43 44 44 44 45 45 45 45 45 45 46 46 45 45 44 44 43 42 40 38 37 36 36 35 35 35 35 35 35 34 35 35 35 36 36 36 35 34 33 33 33 33 34 34 34 35 35 35 34 34 34 34 34 35 35 35 35 34 34 33 33 33 33 32 32 32 32 32 31 31
39 39 40 40 41 41 42 42 42 43 43 44 44 44 44 44 45 45 45 45 45 46 46 46 46 47 47 47 46 46 45 44 43 42 40 39 38 37 37 36 36 35 35 35 35 35 35 35 36 36 37 36 35 34 33 33 33 34 35 35 35 35 34 33 34 35 35 35 35 36 36 36 36 36 35 35 35 34 34 33 33 33 33 32 32
40 40 40 41 42 42 43 44 44 45 45 45 46 46 46 46 46 46 46 46 46 46 46 46 46 47 47 47 46 46 46 45 44 43 42 41 40 39 38 37 37 36 36 36 35 35 35 35 35 36 36 37 36 36 35 35 35 35 35 35 34 34 33 32 33 35 36 36 36 36 37 37 37 37 37 37 37 36 36 35 35 34 34 33 33
40 41 42 42 43 43 44 45 45 46 46 47 47 47 48 48 47 47 47 47 47 47 46 46 46 47 47 47 47 47 47 46 45 44 43 42 41 41 41 40 39 39 38 38 37 37 36 36 35 35 36 36 36 37 37 36 36 35 35 35 34 33 33 33 33 34 35 36 37 38 38 38 38 39 39 39 39 38 38 37 37 36 35 35 34
41 42 43 43 43 44 44 45 46 47 47 48 48 48 49 49 49 49 49 49 49 49 48 48 48 48 48 48 48 48 48 48 47 46 46 45 45 45 44 43 42 41 40 40 39 39 38 38 37 36 36 36 36 36 37 36 36 36 37 37 35 33 33 33 33 34 35 36 37 38 39 40 40 40 40 39 39 38 38 38 37 37 37 37 36
42 43 44 45 45 46 46 46 47 48 48 49 49 50 50 50 50 50 50 50 50 50 50 50 50 49 49 49 49 49 49 49 49 49 49 48 48 47 47 46 45 44 42 42 41 40 40 39 38 38 37 37 36 36 37 36 36 36 37 37 36 35 34 33 34 35 36 37 37 38 40 40 41 41 41 41 40 40 39 39 38 38 38 39 39
43 44 45 46 46 47 48 48 48 49 50 50 50 51 51 51 51 51 51 51 51 51 51 50 50 50 50 50 50 50 51 51 51 51 50 50 49 48 48 47 46 45 44 43 42 41 40 40 39 38 38 37 36 36 37 37 36 35 35 35 35 35 35 34 34 35 36 36 37 38 39 40 41 41 41 41 41 41 40 40 40 39 39 39 40
43 44 45 46 47 47 48 48 49 50 50 51 51 51 51 51 52 52 52 52 52 51 51 51 51 51 51 51 52 52 52 52 52 51 51 51 50 49 48 47 47 46 45 44 43 42 42 41 41 40 39 39 38 38 38 38 38 38 37 37 36 36 35 35 34 34 35 36 36 37 38 39 39 40 40 39 39 39 40 40 40 40 39 39 40
42 43 44 45 46 47 47 48 48 49 50 51 52 52 52 52 52 52 52 52 52 52 52 52 52 52 52 52 51 51 51 51 51 51 50 50 50 49 49 48 48 47 47 47 46 45 45 44 44 42 42 41 40 39 39 39 39 39 39 39 38 37 36 37 36 36 36 36 37 37 37 38 38 38 39 39 39 39 39 39 39 39 38 38 38
42 43 43 44 45 46 47 47 48 49 50 50 51 51 51 52 52 52 52 52 52 53 53 52 52 51 51 50 50 50 50 50 50 50 51 51 51 51 51 50 50 49 49 49 49 48 48 47 47 46 44 43 43 42 41 41 40 40 41 40 40 39 39 39 39 39 38 38 38 38 38 38 38 38 38 38 38 38 38 37 37 38 38 38 38
41 41 42 43 44 45 46 46 47 48 48 49 49 50 50 51 51 52 52 52 52 52 53 53 52 52 52 51 51 50 50 50 50 50 51 52 52 52 53 53 52 51 51 51 51 50 50 49 49 48 47 46 45 45 44 43 43 42 42 42 42 42 41 40 39 39 40 40 40 39 38 38 38 38 38 38 37 37 37 37 37 38 38 38 39
39 40 40 41 42 43 44 45 45 46 47 48 48 49 49 50 50 51 51 51 51 51 51 51 51 52 52 52 51 51 50 50 50 51 52 53 54 54 54 53 53 52 52 51 51 51 51 50 50 49 49 48 47 47 46 46 45 44 43 43 42 42 42 41 40 40 40 40 40 39 39 38 38 38 38 38 37 37 37 38 38 39 39 39 40
36 37 37 38 39 40 41 42 43 44 45 46 47 48 49 49 49 49 50 50 49 49 49 48 49 49 50 51 52 51 51 51 51 52 52 53 54 54 55 54 54 53 52 52 51 51 51 51 50 50 49 48 48 47 47 47 46 45 44 44 43 42 42 41 41 40 40 40 40 40 40 40 40 40 40 40 40 40 40 41 41 41 42 42 42
32 33 33 34 35 36 37 38 39 41 42 43 44 46 47 47 48 48 48 48 48 49 49 49 49 49 50 51 52 52 52 52 52 52 52 53 54 54 55 55 54 54 53 52 52 51 51 51 51 50 50 49 48 47 47 46 46 45 45 44 44 44 43 42 41 41 41 40 40 40 40 40 41 41 42 42 42 42 42 42 42 41 41 41 41
28 29 30 30 31 32 33 34 35 36 37 39 40 41 42 43 44 45 46 47 48 48 49 50 50 49 49 50 51 52 52 53 53 53 53 53 54 54 54 54 54 54 53 53 52 51 51 50 50 50 50 49 49 48 47 46 46 46 46 45 45 45 45 43 42 41 41 40 40 40 40 40 41 41 41 42 42 42 42 42 41 40 40 40 39
25 26 27 28 29 29 29 30 30 31 32 33 34 35 37 38 39 41 43 45 46 47 48 48 49 49 49 49 50 51 52 52 52 52 52 52 52 53 53 53 53 53 53 52 52 51 51 50 49 49 49 49 49 48 47 46 46 46 46 45 45 45 44 44 42 42 41 40 40 40 40 40 40 40 40 40 40 40 40 40 40 39 39 38 38
Wind_Direction
214 214 215 216 215 214 214 214 214 213 211 211 211 210 210 210 209 209 208 209 208 207 208 208 207 206 205 204 204 202 200 199 198 197 197 199 197 196 196 192 192 192 192 194 194 196 204 208 212 217 217 219 219 218 218 219 221 223 221 223 227 230 231 233 236 243 246 249 257 262 267 278 283 283 288 295 297 300 308 313 311 308 309 313 318
217 217 218 218 217 215 215 215 215 215 213 212 213 213 212 212 212 212 211 211 211 211 212 212 211 212 211 211 210 209 209 208 206 205 205 205 207 208 207 205 205 206 206 209 209 210 215 216 218 221 222 224 226 224 223 223 224 226 226 227 230 233 233 234 239 246 251 253 257 261 263 271 277 279 283 290 295 299 304 308 310 308 303 303 312
219 219 220 220 220 217 216 216 216 216 215 214 214 214 214 214 214 214 214 214 215 215 216 216 215 216 216 216 216 215 216 216 214 214 213 212 214 215 216 215 215 216 217 219 219 221 225 226 225 225 225 226 229 230 230 230 229 230 232 232 234 235 235 236 241 248 253 256 258 262 265 268 272 274 279 286 292 296 300 303 307 309 304 298 304
221 221 221 220 221 222 220 217 216 217 217 216 216 216 216 216 216 217 217 217 218 217 219 220 220 220 220 219 220 220 220 221 221 220 220 220 219 220 222 223 222 223 225 226 227 228 230 231 232 232 231 229 231 235 236 235 236 237 238 237 235 236 237 238 243 249 253 257 259 262 266 269 271 274 280 285 288 291 295 298 301 306 306 301 301
224 222 221 220 221 225 225 220 217 217 218 218 218 218 219 219 219 219 220 220 221 221 221 222 223 224 224 223 223 224 225 226 226 225 225 225 225 225 227 228 229 229 230 232 233 235 235 236 238 238 238 236 236 240 242 240 239 241 243 244 242 242 242 244 247 251 254 257 260 262 266 270 273 276 279 283 286 289 293 296 298 301 304 304 303
223 222 221 221 222 224 226 224 220 218 219 220 220 220 221 221 221 221 222 223 224 224 224 224 225 227 228 228 227 228 228 230 230 230 229 229 230 230 231 232 233 234 235 236 238 239 240 241 242 243 243 244 244 245 245 245 245 244 246 248 249 249 250 251 252 254 256 259 262 265 267 270 274 277 280 283 286 290 293 297 300 301 301 302 303
221 221 222 221 221 221 224 225 222 221 221 222 222 222 222 223 224 224 225 226 227 228 227 227 228 229 230 231 232 231 232 232 233 234 234 233 234 235 235 235 237 239 239 240 241 242 243 245 245 246 246 247 248 248 248 249 250 250 249 250 251 252 253 255 255 256 259 261 264 267 269 272 274 278 281 284 285 288 292 296 300 301 301 299 300
221 222 222 221 222 223 224 225 225 225 224 224 225 225 225 225 226 227 227 227 229 231 231 230 230 230 231 233 234 235 235 235 235 236 236 236 236 237 239 238 239 241 243 244 245 245 245 247 248 248 249 249 250 251 251 252 253 254 255 254 254 254 255 256 256 258 260 263 265 267 270 273 274 277 280 282 284 287 289 292 294 297 299 299 300
223 220 216 217 221 225 226 226 227 227 227 226 226 227 228 228 228 229 229 229 230 232 233 234 233 232 232 234 235 236 236 237 238 238 238 238 238 239 240 241 242 243 244 245 247 247 247 248 249 249 249 249 250 252 253 253 254 256 258 258 258 258 258 258 259 260 261 263 265 267 270 271 274 276 278 281 284 286 287 288 290 292 296 299 300
227 223 218 216 220 224 225 225 227 227 227 227 227 228 230 230 230 232 232 232 232 233 234 235 235 234 233 234 236 237 237 238 238 239 239 240 240 240 241 242 243 244 246 247 248 249 250 250 251 251 251 250 250 251 253 254 255 256 257 259 260 260 261 261 261 262 263 264 265 267 269 271 273 275 277 280 283 285 286 287 289 291 294 297 299
230 230 230 229 228 228 226 226 227 226 227 228 228 230 232 231 232 234 235 235 236 236 235 236 237 238 237 235 236 237 239 239 238 238 239 241 242 243 243 243 244 245 246 248 249 250 251 252 253 254 254 253 252 252 252 254 256 257 258 258 259 260 262 262 263 264 264 265 266 267 268 270 272 275 277 280 283 285 287 289 290 291 293 296 298
235 236 238 239 237 234 233 232 230 229 230 230 230 231 234 234 235 236 237 239 240 239 239 238 238 240 241 239 238 238 240 240 239 238 239 240 242 244 245 245 245 245 246 247 249 251 252 253 254 254 255 256 255 254 254 254 257 258 259 259 258 259 260 261 263 264 264 265 266 266 267 269 271 273 275 278 281 283 285 287 289 290 293 295 296
238 238 240 242 242 241 238 237 236 234 233 233 233 235 236 237 237 237 238 240 241 241 241 241 241 241 242 243 242 242 242 241 241 240 240 241 242 244 246 246 247 247 247 248 249 250 252 253 254 255 255 256 257 257 257 257 258 259 260 261 260 260 260 260 261 262 263 264 265 266 267 268 270 272 273 275 278 280 282 284 287 289 292 293 295
239 239 240 241 244 244 243 242 240 237 236 237 238 239 240 239 239 239 239 240 241 242 243 243 243 243 244 244 245 246 245 245 243 242 242 242 243 244 246 247 248 248 248 249 250 251 252 253 254 255 255 256 257 258 259 259 259 259 260 261 262 262 262 261 262 262 263 263 264 266 267 267 269 271 273 274 276 278 280 283 285 288 290 291 293
242 242 242 242 243 246 246 246 245 242 240 240 241 243 242 241 241 241 242 242 242 243 244 244 243 244 245 245 246 247 248 248 246 245 245 244 244 245 246 247 248 249 250 250 251 251 252 252 253 254 255 256 257 257 258 259 259 259 259 260 262 263 263 264 264 264 264 263 264 265 267 267 269 270 272 273 275 277 279 282 284 286 288 290 291
243 244 245 244 245 247 249 249 249 247 245 244 245 246 245 244 243 242 243 245 245 245 246 245 245 245 245 245 247 248 248 248 248 247 247 246 246 247 247 247 248 250 250 251 252 252 252 252 253 254 254 255 256 256 257 258 258 258 258 259 261 263 264 265 264 264 265 264 264 265 266 267 268 269 270 272 274 277 279 281 282 284 285 287 289
246 246 247 246 247 250 252 251 250 249 248 247 248 249 247 245 244 244 245 246 246 247 247 247 247 247 246 246 247 248 248 249 248 247 247 247 248 248 248 247 248 249 250 252 253 253 254 253 253 254 254 255 255 255 256 257 257 258 258 259 259 261 263 264 264 264 264 264 265 265 266 267 268 269 270 270 272 275 277 279 280 281 282 284 286
250 250 249 248 248 250 252 251 249 249 249 248 249 250 250 247 246 247 248 248 247 248 249 249 249 248 248 248 249 249 249 250 249 248 247 247 248 248 248 248 249 249 250 252 253 254 255 254 254 254 255 255 255 255 255 256 257 258 258 259 259 259 260 262 264 264 263 263 263 264 265 266 267 268 270 270 272 274 275 277 279 280 281 282 284
253 253 252 252 251 251 251 250 249 249 249 249 249 251 251 250 249 249 249 250 250 250 250 251 250 250 249 250 250 251 251 251 251 250 248 247 248 248 249 248 249 250 251 252 254 255 255 255 255 255 255 255 256 255 255 255 256 257 258 258 258 259 260 262 263 264 264 263 263 264 265 266 267 268 269 270 272 273 275 277 278 279 279 281 282
256 255 254 254 254 254 253 252 251 251 250 250 250 250 250 250 250 250 251 251 251 252 252 252 252 252 251 251 251 252 252 252 252 252 251 249 248 248 247 248 249 250 251 252 253 255 256 256 256 256 256 256 256 256 256 255 256 257 257 257 258 259 261 262 262 263 264 264 264 264 265 266 267 268 270 271 272 273 275 277 277 277 278 280 281
258 258 257 256 255 256 256 255 255 254 253 253 253 252 251 250 251 252 252 252 252 253 254 254 254 254 253 252 253 254 253 253 254 256 256 254 252 251 249 249 249 250 251 252 253 254 255 256 257 257 257 257 257 257 256 256 256 257 257 257 258 259 260 261 262 263 263 263 264 264 265 266 267 268 269 271 272 273 274 275 275 276 277 278 279
258 259 259 258 257 256 257 258 257 257 257 256 255 254 253 253 253 254 253 253 252 253 255 256 256 256 255 254 255 256 257 257 258 261 262 259 257 256 254 252 251 251 251 252 253 254 256 256 257 257 257 257 257 257 257 257 257 257 257 257 258 258 259 260 261 262 262 262 263 264 265 266 267 268 269 270 271 272 273 273 274 275 276 276 277
259 259 259 259 258 258 258 259 259 259 258 258 257 256 256 255 256 255 255 254 254 254 255 256 257 258 257 256 256 257 259 259 260 265 267 262 257 256 256 255 253 252 252 252 253 255 256 256 257 257 257 257 257 257 257 257 257 257 257 258 258 258 258 259 260 261 261 261 262 262 263 264 266 267 268 269 270 271 272 273 273 274 275 275 275
259 259 259 259 260 260 259 260 260 259 259 259 258 258 258 257 257 258 257 256 255 255 255 256 257 258 259 260 259 258 259 260 261 264 265 262 258 257 258 258 257 256 255 255 255 255 256 257 258 259 257 256 256 257 257 257 257 257 257 257 258 258 258 258 259 259 260 260 261 262 263 264 265 266 267 268 269 270 271 271 271 272 273 274 274
258 259 260 260 261 261 260 260 260 260 260 260 259 259 259 258 259 260 260 259 256 255 256 256 257 258 259 260 262 261 260 260 261 261 261 260 260 260 260 260 260 258 257 257 257 258 259 260 261 260 259 258 257 257 257 257 256 256 256 256 257 257 258 258 258 259 259 259 260 261 263 264 265 265 266 266 267 267 268 269 270 270 271 272 273
257 258 260 260 260 260 260 260 261 261 260 260 259 258 259 259 259 260 261 260 258 258 258 259 259 259 259 259 261 262 261 260 260 260 261 260 260 260 260 261 261 261 260 259 258 259 260 260 260 260 260 260 259 259 258 257 257 256 256 256 256 256 256 257 257 258 258 260 261 261 263 264 265 266 266 266 265 266 266 267 268 269 270 270 271
257 257 259 259 260 260 260 260 261 261 261 260 259 257 257 257 257 257 258 259 259 260 261 261 260 261 261 261 261 261 261 261 261 261 261 261 260 260 261 261 262 263 263 262 261 260 259 259 259 260 260 261 261 260 259 258 258 257 256 256 256 255 256 256 257 258 259 260 261 263 264 265 265 265 265 264 264 265 265 266 266 267 268 269 269
257 257 258 259 259 258 258 258 259 259 259 259 258 257 256 255 255 256 257 258 260 261 262 262 262 263 264 264 262 261 260 260 261 261 262 263 263 263 262 263 264 265 266 266 266 263 261 260 260 259 259 259 259 260 259 258 258 257 257 256 255 255 255 256 256 258 259 260 261 263 264 264 264 264 263 263 263 263 263 263 264 264 265 266 266
259 258 258 258 257 257 257 257 257 257 258 258 257 257 256 255 256 256 257 258 259 260 261 263 264 265 265 264 264 262 261 261 260 261 262 263 263 263 264 264 265 266 267 268 269 267 265 263 260 259 258 258 258 259 259 259 259 258 257 256 256 255 255 255 256 258 259 260 261 262 263 263 263 262 261 260 260 260 260 260 261 261 262 262 263
260 260 259 258 258 258 258 258 258 258 258 258 257 257 256 256 256 257 257 258 259 260 261 262 264 264 264 263 263 262 262 262 263 263 263 263 263 263 264 264 265 265 266 267 268 268 268 266 263 260 258 258 259 259 259 259 259 259 258 257 256 255 255 256 256 258 259 259 260 261 262 262 261 260 258 258 258 258 258 258 258 259 259 260 262
261 261 260 260 260 260 259 259 258 258 258 258 258 258 257 257 257 257 258 259 259 260 260 260 260 261 261 262 262 261 261 263 264 265 265 265 264 264 264 263 264 265 265 265 265 265 266 267 266 262 259 258 259 260 259 259 259 259 259 258 256 255 255 256 257 258 258 259 259 260 260 260 259 257 256 256 256 257 257 257 257 257 258 258 260
262 262 262 261 262 261 261 260 260 260 259 259 258 258 258 258 258 258 257 257 257 258 258 258 258 259 259 260 261 261 261 262 264 264 265 265 266 266 265 264 264 264 264 264 263 263 263 264 265 264 261 259 259 260 260 260 260 260 259 258 257 256 255 256 258 258 257 257 257 257 257 257 257 256 256 255 256 256 257 257 256 256 257 258 260
263 263 263 263 263 263 262 262 262 262 261 260 260 259 259 258 258 258 257 256 256 257 257 257 257 257 258 258 259 260 261 262 263 264 264 265 265 265 265 265 265 264 263 263 263 262 262 263 263 263 262 261 260 260 261 261 262 262 260 258 258 256 255 256 258 257 255 254 253 254 255 255 255 255 256 256 256 257 257 257 257 257 258 259 260
264 264 264 264 263 263 263 263 263 262 262 261 261 261 260 259 259 259 258 257 257 256 256 256 255 255 257 258 258 259 260 261 262 263 264 263 263 264 265 265 265 263 262 262 262 261 261 262 262 262 262 263 262 262 262 262 262 262 260 258 257 256 255 257 258 257 254 252 252 252 253 253 253 254 255 256 256 257 257 258 258 258 258 259 261
264 264 264 264 263 263 263 263 263 263 262 262 262 262 261 261 260 260 259 258 258 257 256 255 255 255 256 256 257 257 258 259 261 262 262 262 262 262 263 264 264 263 262 262 262 262 262 262 263 263 263 264 264 264 263 262 262 260 259 258 258 256 256 257 258 257 255 253 252 252 252 252 253 253 254 255 256 257 257 258 258 258 258 259 260
264 264 265 264 264 263 263 263 263 263 263 263 263 262 262 261 261 261 260 259 258 257 256 255 255 255 255 255 255 256 257 258 259 259 259 260 260 260 261 262 262 262 262 262 262 263 263 263 264 264 264 264 265 264 263 262 261 260 259 259 258 257 256 257 256 256 255 254 253 252 252 252 253 254 254 255 256 256 257 257 257 257 258 258 259
265 265 265 264 264 264 264 264 264 264 264 263 263 263 262 262 261 260 260 260 259 258 258 257 256 256 255 254 254 255 255 256 256 256 257 257 258 258 259 260 260 260 261 262 262 263 263 263 264 265 265 265 265 264 263 262 261 260 260 260 259 259 258 257 256 256 255 254 253 253 252 252 252 253 254 255 255 255 255 255 256 257 257 258 260
266 266 266 265 265 265 264 264 264 264 264 263 263 263 263 262 261 261 260 260 259 259 258 258 257 256 255 254 254 254 254 253 253 254 255 255 255 256 257 258 258 259 260 261 262 263 264 264 265 265 265 265 265 265 264 263 261 260 259 259 260 260 259 258 258 257 256 254 254 253 253 252 252 253 254 254 254 254 254 255 256 256 257 258 260
267 267 267 266 266 265 265 265 265 265 264 264 263 263 263 262 262 261 261 260 259 259 258 258 257 256 255 255 254 254 253 252 252 252 253 253 254 254 256 257 257 259 259 260 261 262 263 265 265 265 265 265 265 264 264 263 263 261 259 259 259 260 259 259 259 259 257 256 254 253 253 253 254 254 254 253 253 254 254 255 256 256 257 258 259
268 268 268 267 267 266 266 266 265 265 265 264 264 263 263 262 262 261 261 260 259 259 258 258 257 257 256 255 254 253 253 252 252 252 253 254 254 255 255 256 257 257 258 259 260 261 262 263 264 265 265 265 264 264 263 263 262 262 260 259 260 260 260 259 259 259 258 257 256 255 254 255 256 257 257 257 258 258 259 259 260 261 262 261 261
270 269 269 269 268 268 267 266 265 265 265 264 264 263 263 262 261 261 260 259 259 259 258 257 257 257 256 255 254 253 253 253 253 253 253 254 254 254 255 255 256 256 257 258 259 260 261 261 262 263 264 264 264 263 262 262 262 262 261 260 260 261 261 260 260 260 260 259 258 257 256 257 259 261 263 264 265 265 265 265 267 268 268 267 266
271 271 271 270 270 269 268 267 266 266 265 264 264 263 262 262 261 260 260 260 259 258 258 257 257 257 256 256 255 254 254 254 254 254 254 254 254 254 253 254 255 255 255 256 258 258 259 260 261 262 263 263 263 263 263 262 263 264 263 261 261 262 262 261 261 262 261 260 260 259 258 259 261 263 264 266 266 266 266 266 268 269 269 269 268
272 272 272 271 270 269 269 268 267 266 265 265 264 263 262 262 261 261 260 260 259 258 258 257 257 256 257 257 256 255 255 254 254 254 253 253 253 253 253 253 253 253 254 255 256 257 258 259 260 261 261 262 263 264 264 263 263 264 264 264 264 264 262 260 261 262 262 261 262 261 261 261 262 262 264 265 265 265 266 267 267 268 268 268 269
274 273 273 272 271 270 269 269 268 267 266 265 264 263 263 262 261 261 260 259 259 258 258 257 257 256 256 256 256 255 255 254 254 253 253 253 253 253 253 253 253 253 253 254 255 256 257 258 259 259 260 261 261 262 263 263 263 263 264 265 265 264 263 262 262 262 263 263 263 263 263 263 263 263 263 264 264 265 266 267 266 266 267 269 271
275 275 274 272 271 271 270 269 268 267 266 265 264 263 262 261 260 260 260 259 258 258 257 257 256 256 255 255 255 255 255 255 254 253 253 253 253 253 253 254 254 255 255 255 255 256 257 257 258 258 259 259 260 260 261 262 263 263 263 264 264 264 264 264 264 263 263 263 264 264 263 262 262 263 263 264 264 265 266 266 265 266 267 270 271
277 276 275 273 272 271 270 269 269 268 266 265 264 263 262 261 260 259 259 258 258 258 257 256 255 255 254 254 254 254 254 254 254 254 253 253 253 253 254 255 255 256 256 256 256 256 256 257 257 257 258 258 259 259 259 260 262 262 263 264 264 264 264 265 264 264 264 263 264 264 263 262 261 262 263 264 265 265 265 266 267 267 269 270 271
278 277 276 274 272 271 270 269 269 268 266 264 263 263 262 261 260 259 258 258 258 258 257 255 254 254 253 253 253 253 253 253 254 254 254 254 254 254 254 255 256 256 257 257 256 256 256 256 257 257 257 257 258 258 258 259 260 261 262 264 264 264 264 264 264 264 264 264 263 263 262 261 261 262 263 264 265 265 266 267 268 269 270 272 273
279 278 276 275 274 272 271 270 269 268 267 265 264 263 262 261 260 259 257 256 256 256 255 254 254 253 253 252 252 253 253 254 255 255 255 255 255 255 255 255 256 256 256 256 256 256 256 256 256 257 257 257 257 257 257 258 259 259 260 262 263 264 265 264 263 262 263 263 263 263 262 262 262 263 264 265 266 266 267 268 269 270 271 273 274
280 279 278 277 276 274 273 272 271 269 268 267 265 264 263 261 260 258 256 255 255 254 253 254 254 254 254 253 253 253 254 254 255 255 255 255 255 255 255 256 256 256 256 255 255 256 256 256 256 256 256 256 257 257 257 257 258 258 259 260 261 263 264 264 263 262 261 262 262 262 262 262 263 263 264 266 267 268 268 269 270 271 272 273 274
283 282 281 279 278 277 275 274 273 271 270 268 266 265 263 262 260 258 257 255 255 254 254 254 255 256 255 254 253 253 254 254 255 255 255 255 255 255 255 255 255 255 255 255 255 255 255 255 255 255 255 255 255 256 256 257 257 258 258 259 260 262 263 262 262 262 261 261 261 262 262 263 263 264 265 265 267 268 268 269 270 271 272 273 274
286 286 284 282 281 280 278 277 275 274 272 270 268 267 265 263 262 260 258 257 256 255 255 255 255 256 255 255 254 254 254 254 255 255 255 255 255 255 255 255 255 255 255 255 255 255 255 255 254 254 254 254 255 255 256 256 257 258 258 259 259 260 261 261 261 261 261 261 261 261 262 263 264 264 265 266 267 267 268 269 270 271 272 274 275